Wind_Speed
10 11 13 13 13 15 14 14 14 14 14 15 15 15 16 16 16 16 10 5 6 6 14 16 14 10 8 1 4 7 8 7 6 11 12 11 12 12 12 13 17 15 14 13 12 16 20 2 6 6 8 7 15 16
13 12 13 12 14 13 13 15 15 14 14 15 15 15 15 14 14 12 7 9 10 7 10 25 26 25 18 12 6 2 6 10 5 6 3 4 7 5 10 6 12 7 6 7 3 3 7 10 12 10 10 10 14 15
12 11 12 13 13 14 14 15 15 15 15 15 16 16 15 13 12 10 12 13 15 8 13 16 12 9 9 12 12 6 2 1 9 5 4 4 3 7 2 5 4 3 7 5 5 3 6 4 9 7 11 11 16 13
12 11 11 11 13 12 14 14 15 16 16 17 17 16 15 15 14 12 12 10 11 8 5 3 5 10 8 7 7 14 11 10 10 7 4 5 3 2 6 3 3 3 2 4 5 8 10 12 7 11 11 11 12 12
12 10 10 11 12 13 14 15 16 16 17 17 18 17 16 16 16 14 12 9 8 5 5 9 23 19 9 8 11 11 10 7 8 7 5 6 4 1 5 9 6 5 3 4 7 8 14 5 8 6 11 11 13 13
10 10 9 10 10 12 14 15 16 18 18 19 19 19 19 17 12 6 2 3 6 4 4 4 8 6 8 7 9 10 8 7 6 6 4 5 1 2 5 8 10 12 11 9 5 10 12 13 15 17 11 12 11 12
10 10 9 9 12 13 15 17 19 20 19 19 21 19 15 9 5 4 2 2 3 3 3 5 4 3 5 5 7 7 10 7 7 8 7 7 4 2 6 10 10 6 6 4 4 3 8 7 6 12 8 11 13 14
9 10 9 10 12 13 15 18 20 20 19 19 17 10 5 5 5 7 7 7 5 5 4 4 3 8 2 4 5 6 7 8 9 9 9 10 4 4 8 7 9 5 2 4 5 6 6 3 7 12 13 11 10 10
10 9 9 9 11 13 16 19 21 20 19 14 9 3 1 3 4 3 5 4 6 5 4 3 4 3 6 7 4 6 4 7 6 11 12 8 11 5 9 12 10 12 9 10 8 5 8 6 12 11 12 13 11 9
10 10 9 9 11 13 15 18 20 19 14 7 5 6 3 5 3 5 3 3 4 5 4 5 6 5 7 5 3 4 4 5 8 11 10 13 12 16 15 14 8 9 9 11 7 7 9 12 14 12 13 11 10 11
11 11 10 9 10 12 14 17 17 19 8 4 5 2 6 1 5 3 3 3 4 3 4 4 5 6 6 6 4 3 3 3 8 11 11 12 12 15 18 17 13 11 8 14 10 7 9 15 12 10 9 10 13 12
12 11 10 10 10 11 12 13 14 12 9 7 10 9 5 4 4 4 3 3 5 2 4 3 1 3 3 3 3 2 4 3 5 5 5 14 12 13 14 19 18 15 15 20 8 6 7 2 18 12 12 13 15 14
13 12 11 11 11 12 11 11 11 12 14 4 3 2 3 2 1 4 3 3 2 1 1 1 3 2 2 3 3 3 4 6 6 4 7 10 6 6 10 11 15 15 16 16 14 11 8 16 19 17 16 17 15 14
14 12 12 11 12 10 9 10 10 10 5 3 3 2 3 4 4 3 4 4 2 2 4 4 4 2 3 3 3 4 4 4 3 4 5 6 12 13 14 8 8 17 18 18 15 9 14 13 13 15 19 19 18 17
15 11 11 13 9 9 10 9 7 7 7 2 4 3 7 7 2 5 5 6 6 3 5 6 5 3 4 4 3 3 4 4 2 4 4 5 10 9 11 8 10 4 3 5 10 14 15 18 17 18 19 20 19 19
14 7 14 12 11 10 8 8 12 9 3 3 4 6 7 3 3 2 3 4 4 6 5 1 4 3 3 4 3 6 4 4 4 6 5 5 9 11 11 9 3 9 10 11 17 19 20 19 19 20 20 20 20 19
14 5 4 5 7 5 3 4 5 2 3 4 5 6 7 3 3 3 3 5 5 5 2 2 2 3 5 4 3 2 4 5 7 6 5 8 9 9 6 5 9 12 14 18 19 19 21 23 25 24 16 17 23 25
10 10 6 6 3 6 6 6 4 3 5 6 7 6 6 4 1 2 2 4 5 2 1 1 3 4 3 3 3 4 7 9 11 9 7 8 5 3 9 10 13 17 18 19 21 23 24 23 20 17 24 27 28 26
10 12 8 7 3 4 2 3 4 3 5 6 4 5 4 4 6 8 6 7 5 2 1 2 4 3 2 2 8 9 9 9 8 10 8 7 8 10 13 15 17 19 22 22 23 19 20 22 23 22 24 23 21 19
10 9 7 6 2 4 1 2 2 4 4 3 5 3 6 4 7 5 5 3 1 2 3 3 3 3 4 7 7 8 9 9 8 6 4 5 11 16 16 17 17 23 23 25 24 28 27 23 20 21 21 19 15 15
7 5 6 4 6 4 3 3 2 3 4 4 8 7 4 4 3 2 2 3 2 1 2 2 4 7 10 10 12 11 8 3 5 4 6 8 13 18 19 20 24 25 23 21 19 17 15 11 16 17 20 18 14 11
9 9 4 2 3 2 3 4 4 6 4 4 5 4 2 3 3 3 4 2 3 2 2 4 4 4 4 6 8 11 12 13 17 21 22 22 10 10 14 20 21 16 16 15 15 13 15 14 10 11 14 15 12 13
9 4 4 1 2 0 5 6 2 3 2 3 3 2 1 2 4 6 2 4 3 7 10 5 6 7 6 10 17 19 18 18 12 15 19 21 22 21 21 20 20 19 17 15 19 19 15 15 14 11 10 10 10 13
3 3 2 1 1 2 3 1 2 2 2 2 2 2 3 3 3 4 3 4 6 10 8 9 7 4 10 14 8 11 14 20 21 22 21 22 16 18 20 19 21 21 20 19 18 16 16 18 16 17 16 13 12 12
1 3 1 2 2 1 2 3 1 1 1 2 0 1 2 3 2 3 4 6 8 9 8 13 12 8 8 9 13 17 20 20 18 11 18 24 22 22 21 21 19 19 18 20 16 15 11 12 11 7 1 3 8 7
2 1 1 2 1 1 2 2 2 2 2 0 2 2 2 3 4 4 4 7 5 5 6 5 5 4 5 6 8 13 15 21 22 17 16 21 21 20 14 10 8 6 10 13 13 10 9 1 4 8 6 5 4 5
2 1 2 4 2 1 2 2 2 2 2 2 3 3 3 4 4 2 2 6 3 8 11 9 6 13 14 18 18 16 15 17 18 17 18 16 14 13 12 12 11 10 12 11 10 11 10 8 5 3 2 1 2 2
2 1 2 1 2 3 2 2 1 5 4 3 3 3 3 3 2 3 4 2 5 8 9 3 14 15 15 15 16 17 18 18 18 20 20 18 16 14 13 12 13 14 12 9 7 7 6 5 3 1 1 3 4 4
2 3 2 3 2 2 3 5 5 5 10 10 9 6 4 3 8 10 12 10 5 11 8 12 15 17 17 17 18 18 17 16 15 14 14 10 13 14 12 12 11 11 10 8 9 7 9 8 7 4 5 4 3 5
3 4 2 6 4 5 6 7 10 10 13 12 10 10 8 9 11 12 9 8 8 9 10 14 16 17 18 18 18 20 20 18 17 15 10 10 13 13 12 12 11 11 9 8 8 7 5 3 4 6 6 7 12 15
2 11 16 13 12 10 10 13 16 16 12 10 10 9 10 10 7 6 12 13 14 15 16 16 17 17 18 17 15 15 16 17 16 15 14 13 13 11 11 10 9 8 7 6 6 4 4 4 6 8 9 8 9 10
7 10 10 14 10 7 7 9 10 10 9 8 10 11 8 11 11 10 14 14 14 14 15 16 16 17 15 17 16 16 17 15 13 13 15 12 9 7 5 5 5 5 6 6 6 8 9 12 14 15 15 15 16 15
9 10 10 10 7 6 7 6 7 7 9 9 9 7 8 9 8 8 10 11 13 13 12 13 13 11 9 11 10 10 10 9 12 12 13 11 11 12 11 12 11 10 11 12 13 14 15 19 20 20 18 15 14 14
Wind_Direction
315 321 331 335 333 334 335 338 337 335 336 333 336 340 342 343 345 350 308 332 310 296 289 285 307 302 299 20 359 326 283 210 211 221 236 237 244 245 249 259 210 207 213 226 246 238 245 104 165 236 93 98 82 78
307 308 323 328 333 332 332 330 330 337 334 331 331 332 334 337 338 341 296 332 315 267 279 306 282 265 260 280 278 311 320 320 310 342 307 302 312 350 354 251 183 240 321 289 3 356 39 66 89 113 113 109 101 102
319 301 314 318 320 325 325 325 328 329 327 326 326 325 326 327 327 325 305 310 306 262 273 253 255 259 232 239 250 264 142 271 314 355 326 328 21 346 326 28 322 48 46 324 335 48 14 158 119 124 119 113 115 118
312 309 310 318 319 324 328 327 325 323 324 323 320 320 319 318 315 311 295 296 298 289 280 233 144 233 250 265 256 256 274 292 291 282 317 294 302 325 316 87 321 16 324 285 302 321 335 314 123 111 119 120 114 117
306 301 304 312 320 325 324 323 322 320 317 316 315 314 312 310 308 304 283 269 247 292 314 309 309 266 248 242 247 259 260 267 282 293 286 277 305 238 269 302 267 10 319 316 305 45 217 295 97 127 121 120 108 113
295 294 302 310 316 324 325 324 324 321 317 313 310 308 306 304 299 283 279 205 227 249 297 293 344 236 221 231 241 239 232 230 255 275 299 293 99 285 278 258 247 86 33 6 4 49 73 67 58 0 88 104 107 107
284 288 292 305 316 317 321 324 324 322 319 319 316 310 305 287 217 247 339 321 202 279 276 294 311 187 213 217 215 225 225 243 230 250 226 248 267 229 258 262 293 48 89 45 0 349 94 127 142 181 134 117 119 117
264 281 281 300 313 317 319 320 322 324 323 323 318 316 303 215 224 267 234 231 212 279 250 270 277 227 181 241 232 191 214 209 237 242 241 226 230 234 250 269 280 271 260 247 31 336 258 287 221 147 133 132 120 127
258 271 275 297 309 317 321 321 322 323 324 318 303 222 225 229 215 196 176 191 211 267 290 277 294 0 325 359 10 257 264 242 216 222 239 240 227 202 249 254 273 262 267 249 170 114 282 158 257 148 142 144 143 143
254 261 271 287 305 314 321 324 326 328 326 285 255 207 209 138 172 134 194 199 210 190 232 260 296 291 320 338 50 327 268 255 247 238 227 218 237 239 219 247 245 239 251 281 254 241 164 166 168 167 139 156 151 161
247 251 265 280 297 311 323 329 334 343 345 238 245 74 49 108 207 221 208 229 204 226 211 247 290 322 310 316 330 291 287 270 255 252 238 238 232 226 232 230 203 206 246 268 248 266 227 170 169 164 137 157 149 183
239 241 253 268 285 302 318 327 338 352 351 320 299 294 261 188 228 239 223 224 225 225 198 231 231 310 294 332 273 249 255 280 260 276 266 229 243 233 227 216 214 213 218 226 215 203 258 172 148 159 153 161 158 175
231 231 246 262 279 291 307 320 326 318 316 232 231 260 273 226 321 241 226 212 194 212 153 286 291 276 266 238 239 263 244 245 313 273 264 259 334 227 219 229 202 207 228 237 216 205 229 134 144 159 149 147 159 169
227 230 238 256 273 288 304 316 324 335 278 213 188 268 242 196 241 257 320 333 54 284 312 316 305 216 230 237 247 258 251 279 256 238 235 10 344 346 351 245 208 197 213 222 214 157 127 123 133 148 146 140 151 155
219 230 240 251 269 288 300 304 308 307 272 262 256 233 217 212 181 340 338 299 352 327 327 324 296 265 256 252 229 285 253 247 287 12 33 351 311 313 320 344 313 193 272 127 113 112 118 125 124 124 120 136 140 141
205 237 246 235 249 268 284 301 281 242 263 271 266 251 267 85 343 353 298 319 358 320 328 40 354 314 277 268 222 229 256 48 328 326 330 338 335 315 303 283 316 64 86 97 109 119 118 120 124 113 119 125 128 126
178 226 210 211 212 247 303 284 225 196 270 243 243 232 258 304 66 329 314 300 304 305 344 36 278 252 313 253 250 327 24 330 306 331 344 329 325 301 263 123 77 92 100 100 111 118 114 120 120 119 111 105 105 103
190 194 204 184 204 266 215 222 245 220 236 245 259 343 16 344 213 15 332 346 329 27 46 279 308 237 238 280 317 349 326 313 316 328 321 314 313 278 127 111 107 105 109 108 112 114 120 125 120 118 114 112 110 115
188 176 189 178 186 275 188 227 266 271 246 289 300 276 287 12 22 3 333 353 22 70 280 248 252 240 258 295 324 314 301 301 295 302 297 311 107 97 100 99 110 106 105 113 116 117 120 119 119 119 121 125 131 145
143 149 149 166 180 268 219 259 231 273 284 342 296 333 15 15 341 324 303 295 223 204 209 230 255 346 313 306 299 290 288 284 274 279 285 93 95 94 93 96 99 104 101 101 102 109 112 117 125 134 141 155 169 188
148 149 151 175 213 279 306 277 243 287 325 300 25 29 340 333 314 313 310 341 248 298 286 314 327 313 305 307 303 290 285 343 63 78 99 94 92 98 96 96 99 100 103 111 116 116 118 116 138 154 167 189 187 151
129 155 185 191 260 194 265 260 302 342 294 358 37 355 297 306 320 13 310 333 1 296 274 285 295 335 337 336 351 21 35 61 83 89 91 97 99 98 96 101 103 101 107 117 119 102 79 81 110 168 154 141 139 138
151 193 198 127 230 343 266 331 355 0 310 0 340 295 298 349 356 319 45 353 353 331 336 25 35 4 5 28 50 45 49 67 70 84 92 94 95 91 85 80 86 89 81 77 92 87 85 85 78 72 110 124 137 122
307 332 309 257 176 325 332 353 64 357 356 327 300 13 12 4 5 35 20 330 326 345 22 17 12 46 51 47 50 48 58 73 72 71 82 89 82 81 87 86 88 90 96 99 100 97 93 87 77 66 60 65 64 75
66 339 220 301 335 345 299 341 333 308 290 265 13 110 78 29 52 45 356 332 353 8 19 38 43 36 47 45 53 62 63 77 83 80 81 95 97 91 85 85 89 99 109 105 102 101 97 86 90 101 330 80 63 55
42 81 341 61 288 10 341 311 337 323 297 16 62 91 66 51 45 38 358 328 332 336 342 346 337 6 32 55 78 75 79 80 85 82 90 98 101 105 109 108 105 105 108 108 112 114 109 228 132 90 85 81 41 319
322 37 35 37 358 345 264 245 251 267 288 78 78 61 55 60 44 33 212 300 299 329 353 335 305 68 67 73 83 103 102 104 113 122 128 129 134 129 114 108 104 127 151 153 139 139 140 136 128 124 102 51 61 8
358 331 267 305 212 212 270 251 315 15 2 56 81 88 88 84 171 205 140 176 282 269 269 323 65 58 66 87 97 99 97 96 96 97 94 88 85 86 90 92 86 93 82 84 115 119 130 131 117 93 34 332 2 10
234 199 218 253 198 205 18 39 34 60 71 79 91 83 101 129 156 187 208 205 129 28 11 101 94 86 76 69 76 84 86 88 92 93 92 93 94 94 96 99 103 97 107 82 65 66 58 60 46 36 6 350 339 297
35 180 25 42 52 56 83 100 89 89 90 95 106 111 116 138 159 179 188 150 121 104 77 79 84 81 78 73 68 64 61 62 66 75 79 82 85 85 86 87 89 91 92 100 105 100 101 202 220 219 243 344 4 1
82 100 102 104 103 119 128 127 125 122 114 101 96 97 107 116 107 90 92 88 87 85 84 77 65 59 61 66 75 82 82 73 67 61 68 78 79 77 76 74 73 64 55 41 24 21 10 333 350 340 323 318 313 310
116 104 99 101 109 120 119 117 120 114 96 84 93 101 105 91 84 53 55 89 86 78 64 65 61 59 72 91 82 67 58 56 47 44 39 52 59 32 30 52 62 46 21 355 340 336 350 348 351 356 357 349 348 351
135 111 104 97 93 93 90 86 72 93 101 106 117 106 88 86 63 39 77 57 58 60 62 56 63 82 64 58 81 107 102 97 100 94 79 69 44 28 8 9 13 2 357 352 346 349 354 18 24 26 31 31 37 37
Height
850 849 847 845 843 841 839 837 836 834 832 830 827 824 821 817 814 811 805 804 803 789 769 764 760 759 753 754 763 751 732 716 714 727 721 714 709 696 699 693 697 707 713 717 716 724 733 680 684 707 708 700 701 713
848 847 846 844 842 840 838 836 834 832 830 827 825 822 820 818 815 812 806 804 803 800 772 768 762 757 758 758 756 750 750 740 723 722 717 708 715 707 722 717 697 728 716 714 720 722 698 690 696 695 696 703 708 716
846 845 844 842 841 838 836 834 832 830 827 825 822 820 818 816 814 813 809 805 801 788 765 753 746 739 748 750 750 753 747 751 750 733 728 724 731 733 732 742 734 730 730 737 726 715 717 706 700 695 699 706 711 717
844 843 842 840 839 837 834 832 830 827 824 822 819 817 815 813 812 811 808 805 803 791 770 738 741 743 743 745 745 745 744 743 739 731 730 729 735 735 733 736 734 729 729 729 733 729 731 713 702 701 707 711 716 720
841 840 839 838 836 834 832 830 827 824 821 818 815 813 812 810 808 807 804 803 803 803 782 761 751 741 740 742 744 742 741 741 736 729 728 731 724 731 728 729 725 721 727 737 725 726 732 729 709 714 716 720 724 729
838 837 836 835 834 832 830 827 824 821 818 815 812 809 807 806 805 805 800 799 800 800 793 764 740 738 740 742 742 742 740 741 737 730 732 728 727 738 738 733 725 733 741 736 734 727 729 730 731 741 724 732 735 737
834 834 834 833 832 829 827 824 821 818 814 811 807 804 802 802 803 803 803 802 800 800 794 773 745 735 737 738 737 738 737 734 734 730 733 732 732 736 735 736 724 726 731 737 736 734 734 732 735 738 736 735 736 740
831 831 831 830 829 827 824 821 817 813 810 807 803 801 799 799 801 800 798 799 800 800 796 779 751 739 733 736 731 730 730 731 730 728 727 732 729 736 733 726 725 723 729 728 730 736 735 734 733 729 734 741 744 747
828 828 828 828 827 825 822 818 813 809 806 803 801 800 801 801 798 797 797 798 799 801 788 771 756 761 735 737 735 732 725 727 719 725 725 726 727 744 728 726 724 724 726 722 722 732 741 740 742 731 734 741 746 754
824 825 825 825 824 822 820 816 810 805 801 801 801 800 794 793 795 797 797 797 795 790 786 770 751 751 744 740 742 744 727 728 726 716 709 718 718 711 716 717 719 721 721 719 715 719 720 731 729 732 737 745 748 753
821 822 822 822 821 820 818 815 810 805 799 796 790 790 793 792 793 791 791 790 780 776 772 764 758 758 750 753 749 746 740 727 727 712 710 713 709 705 704 706 711 716 720 715 712 714 713 720 726 731 737 742 749 756
817 818 819 819 819 817 816 814 811 808 806 806 805 799 793 791 788 787 776 770 767 766 760 761 761 760 757 755 752 745 743 729 727 699 704 706 695 688 691 695 701 707 712 715 712 714 716 716 723 731 739 749 755 758
813 815 816 816 816 815 814 813 811 809 806 803 802 798 786 784 791 775 770 758 760 758 757 759 762 760 760 756 755 749 741 730 708 714 705 693 686 684 686 686 693 700 704 707 708 710 714 720 727 736 742 748 754 758
810 811 812 813 813 812 812 811 809 807 804 791 794 803 787 779 774 761 760 758 756 755 756 755 757 760 755 757 747 748 731 725 723 715 705 715 710 702 691 685 686 694 697 699 703 709 717 722 730 736 742 748 755 762
807 808 809 810 810 810 810 809 808 808 800 786 779 790 767 758 760 760 762 761 757 756 757 757 756 756 751 751 744 740 732 724 713 719 722 722 717 714 704 697 695 691 698 696 701 709 721 728 740 744 748 754 761 765
805 807 805 807 808 808 808 807 806 805 792 787 782 769 753 754 764 764 766 761 761 757 757 761 765 766 756 747 744 738 726 732 738 729 726 724 721 713 708 706 699 700 703 707 713 723 730 737 746 750 757 762 766 770
803 803 802 805 806 806 806 805 796 795 791 786 769 760 757 754 763 765 766 764 762 760 765 771 775 771 764 748 731 728 736 741 734 727 725 723 721 716 712 712 711 712 716 720 727 734 739 746 752 758 763 768 770 773
801 801 803 804 805 805 803 802 792 791 789 779 769 756 755 756 761 762 764 763 764 766 768 772 773 766 757 750 744 746 743 736 730 728 726 722 717 715 716 720 722 725 728 733 737 743 748 755 760 765 769 772 777 780
799 801 803 804 805 803 795 796 793 786 778 767 763 760 757 757 763 768 768 769 772 776 778 773 766 757 751 748 748 746 742 739 736 730 725 721 720 719 723 727 729 732 735 741 746 752 758 762 766 770 775 779 784 790
800 802 803 804 805 800 796 794 793 786 778 769 765 761 765 772 776 778 776 774 775 773 772 767 759 756 756 753 750 746 741 736 732 728 725 725 727 726 730 734 736 741 745 751 756 759 764 771 776 780 783 787 790 793
803 804 804 805 803 799 794 787 783 780 776 770 768 777 783 785 781 778 774 773 770 767 765 762 761 758 755 750 746 741 734 728 726 726 727 730 735 736 741 745 747 751 755 761 766 772 775 778 781 785 787 790 791 792
802 804 804 803 799 799 796 789 785 784 783 775 784 794 791 786 781 780 779 773 771 772 768 764 760 758 754 750 744 739 736 734 734 735 737 740 744 748 752 756 758 763 767 771 775 777 781 784 786 787 788 790 791 793
803 803 799 800 798 802 800 788 790 791 794 795 797 794 789 784 784 781 781 784 779 776 769 764 763 760 756 752 747 745 744 742 742 744 746 750 755 758 762 765 768 770 774 778 781 783 787 789 790 790 791 792 793 795
802 800 797 794 794 799 793 791 794 799 800 799 796 790 791 789 790 791 793 793 787 779 773 770 766 762 759 756 755 754 754 753 752 755 758 760 765 769 772 775 777 780 782 785 788 791 793 794 795 795 796 797 799 800
807 808 804 810 798 798 800 799 801 801 798 796 792 788 791 792 794 801 804 800 790 784 779 776 772 770 767 765 764 763 764 763 763 766 770 771 774 777 780 783 785 787 789 790 794 796 798 799 799 800 801 802 803 804
807 803 803 800 804 804 802 799 800 799 796 789 788 785 789 797 802 809 812 807 800 793 789 785 781 777 774 773 774 774 775 774 774 776 780 780 781 784 788 790 792 795 795 795 797 799 799 802 802 804 806 807 807 807
806 805 803 806 806 808 806 804 803 801 785 780 780 787 795 804 811 815 815 810 805 797 791 783 782 777 777 777 778 779 780 781 781 783 785 786 788 789 791 791 793 795 796 798 800 802 803 805 805 806 806 806 807 807
810 812 807 807 808 808 803 797 790 784 779 774 781 796 797 804 813 813 812 808 801 795 790 786 784 782 780 780 781 782 784 786 787 787 789 792 793 795 796 797 798 798 800 800 801 803 804 805 806 806 806 806 806 806
810 808 809 804 798 798 789 790 789 786 785 785 788 791 798 800 803 805 804 801 797 793 786 783 785 785 786 785 784 785 786 788 789 790 791 793 795 798 799 800 801 803 804 805 806 806 807 808 808 809 808 807 806 805
796 798 792 791 792 794 792 793 792 791 790 790 791 794 796 798 798 797 794 793 793 792 789 788 788 789 791 793 794 794 794 794 794 795 795 797 799 801 802 803 803 804 805 806 807 809 808 809 807 806 806 805 804 806
799 794 795 796 798 798 795 794 793 794 795 794 794 793 794 800 799 796 795 795 794 794 794 796 797 797 797 797 799 800 802 804 804 804 803 803 804 805 806 806 807 808 808 808 807 806 807 806 805 805 804 804 804 804
801 798 797 798 800 799 795 793 793 796 799 799 797 799 799 798 803 802 799 799 799 799 801 800 801 802 802 803 806 808 808 809 809 810 809 808 809 809 808 807 807 808 808 807 806 804 803 803 802 802 802 802 802 802
795 796 799 801 803 800 797 798 800 800 802 802 804 803 803 805 809 807 807 806 806 806 806 807 807 809 809 808 809 810 811 813 813 813 814 814 814 813 812 811 811 811 810 810 808 807 806 806 806 805 805 805 805 805